sat.trackr.live / text

‹ back to catalog

STARLINK-36276

NORAD 67852 · 2026-034C

PAYLOAD ACTIVE UNKNOWN

§ Identity

Operator
Country
US
Launch date
2026-02-20
Launch site
AFETR
Launch vehicle
Mass (kg)
RCS (m²)

Purposes: comms

External: N2YO · Heavens-Above · Gunter

§ Orbital elements

Epoch: 2026-05-25T04:20:43.692000Z

Period
94.10 min
Inclination
53.1589°
Eccentricity
0.0001342
Mean motion
15.30207900 rev/d
Perigee alt
474.3 km
Apogee alt
476.1 km
Semi-major
6,853.3 km
B*
5.5126e-4
RAAN
209.2075°
Arg perigee
91.1070°
Mean anomaly
269.0085°
Rev number
1,574

§ Raw data

STARLINK-362761 67852U 26034C   26145.18106125  .00016007  00000+0  55126-3 0  99902 67852  53.1589 209.2075 0001342  91.1070 269.0085 15.30207900 15748

JSON: /api/v1/satellites/67852 · /tle

For live sub-satellite position, see the globe view (requires WebGL).

§ Visibility from observer

Set your observer location to see the next 7 days of passes ≥ 10°. The values pass through the URL so the page stays shareable.

No JS? Fill the form by hand. The geolocation button needs JavaScript.